TimeCST,TemperatureF,Dew PointF,Humidity,Sea Level PressureIn,VisibilityMPH,Wind Direction,Wind SpeedMPH,Gust SpeedMPH,PrecipitationIn,Events,Conditions,WindDirDegrees,DateUTC
12:15 AM,33.8,30.2,87,30.17,7.0,ENE,10.4,-,N/A,,Overcast,60,2012-11-05 06:15:00
12:35 AM,33.8,30.2,87,30.17,10.0,NE,9.2,-,N/A,,Overcast,50,2012-11-05 06:35:00
12:55 AM,33.8,32.0,93,30.16,10.0,NE,8.1,-,N/A,,Overcast,40,2012-11-05 06:55:00
1:15 AM,32.0,32.0,100,30.16,10.0,NE,5.8,-,N/A,,Overcast,40,2012-11-05 07:15:00
1:35 AM,32.0,32.0,100,30.16,10.0,NE,8.1,-,N/A,,Overcast,40,2012-11-05 07:35:00
1:55 AM,32.0,32.0,100,30.17,10.0,NE,10.4,-,N/A,,Overcast,50,2012-11-05 07:55:00
2:15 AM,32.0,32.0,100,30.17,10.0,NE,6.9,-,N/A,,Overcast,50,2012-11-05 08:15:00
2:35 AM,32.0,32.0,100,30.17,10.0,NE,6.9,-,N/A,,Overcast,50,2012-11-05 08:35:00
2:55 AM,32.0,32.0,100,30.17,10.0,ENE,8.1,-,N/A,,Overcast,60,2012-11-05 08:55:00
3:15 AM,32.0,32.0,100,30.17,10.0,NE,9.2,-,N/A,,Overcast,50,2012-11-05 09:15:00
3:35 AM,32.0,32.0,100,30.17,10.0,NE,9.2,-,N/A,,Overcast,50,2012-11-05 09:35:00
3:55 AM,32.0,32.0,100,30.16,10.0,ENE,8.1,-,N/A,,Overcast,60,2012-11-05 09:55:00
4:15 AM,32.0,32.0,100,30.17,10.0,NE,8.1,-,N/A,,Overcast,50,2012-11-05 10:15:00
4:35 AM,32.0,32.0,100,30.17,7.0,NE,4.6,-,N/A,,Overcast,50,2012-11-05 10:35:00
4:55 AM,32.0,32.0,100,30.17,7.0,NE,4.6,-,N/A,,Light Drizzle,50,2012-11-05 10:55:00
5:15 AM,32.0,32.0,100,30.17,7.0,NE,4.6,-,N/A,Rain,Rain,50,2012-11-05 11:15:00
5:35 AM,32.0,32.0,100,30.18,5.0,NE,4.6,-,N/A,,Drizzle,50,2012-11-05 11:35:00
5:55 AM,32.0,32.0,100,30.17,4.0,NNE,3.5,-,N/A,,Drizzle,20,2012-11-05 11:55:00
6:15 AM,32.0,32.0,100,30.17,7.0,NE,3.5,-,N/A,,Light Drizzle,40,2012-11-05 12:15:00
6:35 AM,32.0,32.0,100,30.17,7.0,NE,4.6,-,N/A,,Overcast,50,2012-11-05 12:35:00
6:55 AM,32.0,32.0,100,30.17,7.0,ENE,4.6,-,N/A,,Overcast,70,2012-11-05 12:55:00
7:15 AM,32.0,32.0,100,30.17,5.0,ENE,6.9,-,N/A,Rain,Light Rain,70,2012-11-05 13:15:00
7:35 AM,32.0,32.0,100,30.17,3.0,ENE,4.6,-,N/A,,Overcast,70,2012-11-05 13:35:00
7:55 AM,32.0,32.0,100,30.17,4.0,ENE,4.6,-,N/A,,Overcast,60,2012-11-05 13:55:00
8:15 AM,32.0,32.0,100,30.18,4.0,ENE,4.6,-,N/A,,Overcast,60,2012-11-05 14:15:00
8:35 AM,32.0,32.0,100,30.18,4.0,ENE,6.9,-,N/A,,Overcast,70,2012-11-05 14:35:00
8:55 AM,32.0,32.0,100,30.17,3.0,ENE,8.1,-,N/A,,Light Drizzle,70,2012-11-05 14:55:00
9:15 AM,32.0,32.0,100,30.17,3.0,ENE,4.6,-,N/A,Rain,Light Rain,70,2012-11-05 15:15:00
9:35 AM,32.0,32.0,100,30.18,3.0,ENE,4.6,-,N/A,,Drizzle,70,2012-11-05 15:35:00
9:55 AM,32.0,32.0,100,30.18,2.5,East,5.8,-,N/A,Rain,Light Rain,80,2012-11-05 15:55:00
10:15 AM,32.0,32.0,100,30.17,2.0,East,5.8,-,N/A,Rain,Light Rain,80,2012-11-05 16:15:00
10:35 AM,32.0,32.0,100,30.17,2.0,East,5.8,-,N/A,Rain,Light Rain,80,2012-11-05 16:35:00
10:55 AM,32.0,32.0,100,30.17,2.0,East,5.8,-,N/A,,Overcast,100,2012-11-05 16:55:00
11:15 AM,32.0,32.0,100,30.16,2.0,East,6.9,-,N/A,,Overcast,90,2012-11-05 17:15:00
11:35 AM,32.0,32.0,100,30.16,2.5,East,4.6,-,N/A,,Overcast,100,2012-11-05 17:35:00
11:55 AM,32.0,32.0,100,30.15,2.0,East,4.6,-,N/A,,Overcast,100,2012-11-05 17:55:00
12:15 PM,32.0,32.0,100,30.14,3.0,ESE,5.8,-,N/A,,Overcast,110,2012-11-05 18:15:00
12:35 PM,32.0,32.0,100,30.14,2.0,ESE,5.8,-,N/A,,Overcast,110,2012-11-05 18:35:00
12:55 PM,32.0,32.0,100,30.13,1.5,ESE,4.6,-,N/A,,Overcast,120,2012-11-05 18:55:00
1:15 PM,33.8,32.0,93,30.11,1.2,ESE,4.6,-,N/A,,Light Drizzle,120,2012-11-05 19:15:00
1:35 PM,33.8,33.8,100,30.10,1.5,ESE,4.6,-,N/A,Rain,Light Rain,120,2012-11-05 19:35:00
1:55 PM,33.8,33.8,100,30.09,1.8,SE,4.6,-,N/A,Rain,Light Rain,130,2012-11-05 19:55:00
2:15 PM,33.8,33.8,100,30.09,2.0,Calm,Calm,-,N/A,,Overcast,0,2012-11-05 20:15:00
2:35 PM,33.8,33.8,100,30.08,2.0,SE,4.6,-,N/A,,Overcast,130,2012-11-05 20:35:00
2:55 PM,33.8,33.8,100,30.07,1.5,SE,5.8,-,N/A,,Overcast,130,2012-11-05 20:55:00
3:15 PM,33.8,33.8,100,30.06,1.5,SE,4.6,-,N/A,,Overcast,140,2012-11-05 21:15:00
3:35 PM,35.6,33.8,93,30.05,1.0,SE,5.8,-,N/A,,Overcast,140,2012-11-05 21:35:00
3:55 PM,35.6,35.6,100,30.04,1.0,SE,6.9,-,N/A,,Overcast,140,2012-11-05 21:55:00
4:15 PM,35.6,35.6,100,30.04,0.8,SE,4.6,-,N/A,,Overcast,140,2012-11-05 22:15:00
4:35 PM,35.6,35.6,100,30.03,1.0,SE,6.9,-,N/A,,Overcast,140,2012-11-05 22:35:00
4:55 PM,35.6,35.6,100,30.03,1.2,SSE,5.8,-,N/A,,Overcast,150,2012-11-05 22:55:00
5:15 PM,35.6,35.6,100,30.02,1.8,SE,4.6,-,N/A,,Overcast,140,2012-11-05 23:15:00
5:35 PM,35.6,35.6,100,30.02,1.2,SSE,5.8,-,N/A,,Overcast,150,2012-11-05 23:35:00
5:55 PM,37.4,37.4,100,30.01,2.5,South,9.2,-,N/A,,Overcast,170,2012-11-05 23:55:00
6:15 PM,37.4,35.6,93,30.01,5.0,SSW,12.7,-,N/A,,Overcast,200,2012-11-06 00:15:00
6:35 PM,35.6,35.6,100,30.02,0.8,SW,13.8,-,N/A,,Overcast,230,2012-11-06 00:35:00
6:55 PM,35.6,35.6,100,30.01,1.8,SSW,10.4,-,N/A,,Overcast,210,2012-11-06 00:55:00
7:15 PM,35.6,33.8,93,30.00,5.0,SSW,9.2,-,N/A,,Overcast,200,2012-11-06 01:15:00
7:35 PM,33.8,33.8,100,29.99,5.0,South,11.5,-,N/A,,Overcast,190,2012-11-06 01:35:00
7:55 PM,33.8,33.8,100,29.97,7.0,SSW,8.1,-,N/A,,Overcast,200,2012-11-06 01:55:00
8:15 PM,33.8,33.8,100,29.96,5.0,South,10.4,-,N/A,,Overcast,190,2012-11-06 02:15:00
8:35 PM,33.8,33.8,100,29.96,5.0,SSW,12.7,-,N/A,,Overcast,200,2012-11-06 02:35:00
8:55 PM,33.8,33.8,100,29.94,5.0,South,12.7,-,N/A,,Overcast,180,2012-11-06 02:55:00
9:15 PM,33.8,33.8,100,29.94,5.0,South,9.2,-,N/A,,Overcast,180,2012-11-06 03:15:00
9:35 PM,33.8,33.8,100,29.92,4.0,South,9.2,-,N/A,,Overcast,180,2012-11-06 03:35:00
9:55 PM,35.6,33.8,93,29.92,5.0,South,9.2,-,N/A,,Overcast,190,2012-11-06 03:55:00
10:15 PM,35.6,33.8,93,29.91,5.0,South,9.2,-,N/A,,Overcast,190,2012-11-06 04:15:00
10:35 PM,35.6,33.8,93,29.90,5.0,South,9.2,-,N/A,Rain,Light Rain,190,2012-11-06 04:35:00
10:55 PM,35.6,33.8,93,29.90,5.0,SSW,10.4,-,N/A,Rain,Light Rain,200,2012-11-06 04:55:00
11:15 PM,33.8,33.8,100,29.87,4.0,South,13.8,-,N/A,Rain,Rain,180,2012-11-06 05:15:00
11:35 PM,33.8,33.8,100,29.86,5.0,South,11.5,-,0.01,Rain,Light Rain,190,2012-11-06 05:35:00
11:55 PM,33.8,33.8,100,29.86,4.0,South,13.8,18.4,0.01,Rain,Rain,190,2012-11-06 05:55:00